DW2806 Boxford MA US current weather conditions

sailwx.info

Wind from 191

Air temperature 17.2° C
Dewpoint 16.6° C

Last reported at 2020-Jul-05 03:45 UTC.
Time now 2020-Jul-05 04:37 UTC

Location: N 42°40' W 070°58'.
View on Google Maps.

See reports from other nearby stations

  
Tides and Currents Weather Stations Pressure Air Temp Water Temp Dewpoint Dewpoint Depression Visibility Wind Speed Wind Dir Waves Ship Positions
date/time (UTC)wind fromknots sea level pressurealtimeterstation pressurevisibilityair tempwater tempwave heightnotes
2020-Jul-05 03:45 191 17.2
2020-Jul-05 03:31 191 17.8
2020-Jul-05 03:15 191 17.8
2020-Jul-05 03:00 191 17.8
2020-Jul-05 02:45 191 17.8
2020-Jul-05 02:30 191 17.8
2020-Jul-05 02:15 191 17.8
2020-Jul-05 02:00 191 17.8
2020-Jul-05 01:46 191 17.8
2020-Jul-05 01:30 191 18.3
2020-Jul-05 01:00 191 18.3
2020-Jul-05 00:45 191 18.9
2020-Jul-05 00:30 201 18.9
2020-Jul-05 00:15 201 19.4
2020-Jul-05 00:00 201 19.4
2020-Jul-04 23:45 172 20.0
2020-Jul-04 23:30 173 20.0
2020-Jul-04 23:15 206 20.6
2020-Jul-04 23:00 148 20.6
2020-Jul-04 22:45 147 21.1
2020-Jul-04 22:30 153 21.1
2020-Jul-04 22:15 144 21.7
2020-Jul-04 22:00 139 22.2
2020-Jul-04 21:45 162 22.8
2020-Jul-04 21:30 166 22.8
2020-Jul-04 21:15 164 23.9
2020-Jul-04 21:00 311 24.4
2020-Jul-04 20:45 272 25.6
2020-Jul-04 20:30 093 25.6
2020-Jul-04 20:15 149 26.7
2020-Jul-04 20:00 181 26.7
2020-Jul-04 19:46 177 26.7
2020-Jul-04 19:31 210 27.2
2020-Jul-04 19:18 225 27.8
2020-Jul-04 19:01 281 28.3
2020-Jul-04 18:46 272 28.9
2020-Jul-04 18:34 081 28.3
2020-Jul-04 18:17 005 27.8
2020-Jul-04 18:01 006 27.2
2020-Jul-04 17:46 006 27.2
2020-Jul-04 17:31 233 27.2
2020-Jul-04 17:16 271 27.8
2020-Jul-04 17:01 229 27.2
2020-Jul-04 16:46 264 27.2
2020-Jul-04 16:31 252 27.2
2020-Jul-04 16:17 282 26.1
2020-Jul-04 16:01 282 26.1
2020-Jul-04 15:45 285 25.6
2020-Jul-04 15:30 328 25.0
2020-Jul-04 15:15 343 24.4
2020-Jul-04 15:00 343 23.3
2020-Jul-04 14:45 062 22.8
2020-Jul-04 14:30 062 22.8
2020-Jul-04 14:16 062 21.7
2020-Jul-04 14:00 062 20.6
2020-Jul-04 13:47 062 19.4
2020-Jul-04 13:31 062 18.9
2020-Jul-04 13:18 062 18.9
2020-Jul-04 13:01 005 18.3
2020-Jul-04 12:46 005 18.3
2020-Jul-04 12:30 005 17.8
2020-Jul-04 12:17 027 17.8
2020-Jul-04 12:00 004 17.2
2020-Jul-04 11:45 289 17.2
2020-Jul-04 11:31 289 17.2
2020-Jul-04 11:15 289 17.2
2020-Jul-04 11:02 289 16.7
2020-Jul-04 10:45 289 16.7
2020-Jul-04 10:30 289 16.7
2020-Jul-04 10:16 289 16.7
2020-Jul-04 10:01 289 16.7
2020-Jul-04 09:45 289 16.7
2020-Jul-04 09:30 289 16.7
2020-Jul-04 09:15 289 16.7
2020-Jul-04 09:00 289 16.7
2020-Jul-04 08:45 289 16.7
2020-Jul-04 08:31 289 16.7
2020-Jul-04 08:15 289 16.7
2020-Jul-04 08:00 289 16.7
2020-Jul-04 07:45 289 16.7
2020-Jul-04 07:30 289 16.7
2020-Jul-04 07:15 289 16.7
2020-Jul-04 07:00 289 16.7
2020-Jul-04 06:45 289 16.7
2020-Jul-04 06:30 289 16.7
2020-Jul-04 06:15 289 16.7
2020-Jul-04 06:00 289 16.7
2020-Jul-04 05:46 289 16.7
2020-Jul-04 05:30 289 16.7
2020-Jul-04 05:15 289 16.7
2020-Jul-04 05:00 289 16.7
2020-Jul-04 04:45 289 16.7
2020-Jul-04 04:30 289 16.7
2020-Jul-04 04:15 289 16.7
2020-Jul-04 04:01 289 16.7
2020-Jul-04 03:47 289 16.7
2020-Jul-04 03:31 289 16.7
2020-Jul-04 03:17 289 16.7
2020-Jul-04 03:01 289 16.7
2020-Jul-04 02:46 289 16.7
2020-Jul-04 02:31 289 16.7
2020-Jul-04 02:16 289 16.7
2020-Jul-04 02:01 289 16.7
2020-Jul-04 01:46 289 16.7
2020-Jul-04 01:30 289 16.7
2020-Jul-04 01:17 289 16.7
2020-Jul-04 01:00 287 16.7
2020-Jul-04 00:47 287 16.7
2020-Jul-04 00:31 287 16.7
2020-Jul-04 00:16 292 16.7
2020-Jul-04 00:01 292 16.7
2020-Jul-03 23:46 298 17.2
2020-Jul-03 23:32 298 17.2
2020-Jul-03 23:15 298 17.2
2020-Jul-03 23:01 298 17.2
2020-Jul-03 22:46 295 17.2
2020-Jul-03 22:31 296 17.2
2020-Jul-03 22:16 265 17.2
2020-Jul-03 22:02 328 17.8
2020-Jul-03 21:46 328 17.2
2020-Jul-03 21:31 312 17.2
2020-Jul-03 21:16 309 17.2
2020-Jul-03 21:01 309 17.8
2020-Jul-03 20:46 313 17.8
2020-Jul-03 20:30 320 17.8
2020-Jul-03 20:15 269 17.8
2020-Jul-03 20:01 302 17.8
2020-Jul-03 19:45 302 17.8
2020-Jul-03 19:30 296 18.3
2020-Jul-03 19:15 295 18.3
2020-Jul-03 19:00 330 18.3
2020-Jul-03 18:46 327 18.3
2020-Jul-03 18:30 326 18.3
2020-Jul-03 18:15 326 18.3
2020-Jul-03 18:00 300 18.3
2020-Jul-03 17:45 324 18.3
2020-Jul-03 17:31 289 0 gusting 11 18.3
2020-Jul-03 17:15 314 18.3
2020-Jul-03 17:01 352 18.3
2020-Jul-03 16:45 337 18.9
2020-Jul-03 16:30 330 18.9
2020-Jul-03 16:15 301 18.9
2020-Jul-03 16:00 318 19.4
2020-Jul-03 15:45 318 19.4
2020-Jul-03 15:30 258 0 gusting 7 19.4
2020-Jul-03 15:15 301 19.4
2020-Jul-03 15:00 350 19.4
2020-Jul-03 14:45 322 19.4
2020-Jul-03 14:30 301 18.9
2020-Jul-03 14:15 308 18.9
2020-Jul-03 14:00 306 18.9
2020-Jul-03 13:46 293 18.9
2020-Jul-03 13:31 296 18.9
2020-Jul-03 13:17 297 18.9
2020-Jul-03 13:00 352 18.9
2020-Jul-03 12:46 312 18.9
2020-Jul-03 12:31 333 19.4
2020-Jul-03 12:16 307 19.4
2020-Jul-03 12:01 294 20.0
2020-Jul-03 11:48 341 20.0
2020-Jul-03 11:31 304 20.0
2020-Jul-03 11:15 325 20.0
2020-Jul-03 11:00 340 20.6
2020-Jul-03 10:45 295 20.6
2020-Jul-03 10:30 331 20.6
2020-Jul-03 10:16 295 21.1
2020-Jul-03 10:00 283 21.1
2020-Jul-03 09:46 285 21.1
2020-Jul-03 09:30 019 21.1
2020-Jul-03 09:15 019 21.1
2020-Jul-03 09:00 019 21.1
2020-Jul-03 08:45 019 21.1
2020-Jul-03 08:30 019 20.6
2020-Jul-03 08:15 019 20.6
2020-Jul-03 08:00 019 20.6
2020-Jul-03 07:45 019 20.6
2020-Jul-03 07:30 019 21.1
2020-Jul-03 07:15 019 21.1
2020-Jul-03 07:00 019 21.1
2020-Jul-03 06:45 019 21.7
2020-Jul-03 06:30 019 21.7
2020-Jul-03 06:15 019 21.7
2020-Jul-03 06:01 019 21.7
2020-Jul-03 05:47 019 21.7
2020-Jul-03 05:33 019 21.7
2020-Jul-03 05:16 019 21.7
2020-Jul-03 05:01 019 21.7
2020-Jul-03 04:46 019 21.7
2020-Jul-03 04:32 019 21.7
2020-Jul-03 04:16 019 22.2
2020-Jul-03 04:01 019 22.2